Погода в Сергеевке

Россия / Омская область     54°48′45″N   74°52′17″E
темп.,
°C
ветер,
м/с
пор.,
м/с
влажн.,
%
обл.,
%
осадки,
мм/ч
давл.,
гПа
погр.,
м
13 мая, чт
чт1300:00+12с6125093 0.0 1020542
03:00+10с5955100 0.0 1020324
06:00+9ссз5105684 0.0 1021424
09:00+12ссз6938100 0.0 10211005
12:00+14сз6833100 0.0 10211131
15:00+9зсз4768100 1.0 1021450
18:00+13сз476122 1.1 1020720
21:00+11св3378100 0.0 102044
14 мая, пт
пт1400:00+9с3987100 0.0 1022205
03:00+8с379193 0.0 1023133
06:00+8с37905 0.0 1025148
09:00+13с46610 0.0 1026753
12:00+17с45320 0.0 10261273
15:00+20ссз45210 0.0 10261520
18:00+20ссз45215 0.0 10261412
21:00+16зсз22345 0.0 102611
15 мая, сб
сб1500:00+14юз34395 0.0 102545
03:00+13юз494287 0.0 1024119
06:00+14зюз31047100 0.0 1024201
09:00+20юз6103775 0.2 1022400
12:00+26зюз7103053 0.2 10201077
15:00+29з89245 0.0 10183365
18:00+29зсз78255 0.0 10173240
21:00+23зюз46405 0.0 101681
16 мая, вс
вс1600:00+18сз226793 0.6 101642
03:00+17зсз5106797 0.4 1017267
06:00+16зсз5117391 0.5 1017321
09:00+20сз565638 0.4 1017563
12:00+25ссз45385 0.4 10171330
15:00+27ссз563277 0.0 10172625
18:00+26ссз563213 0.0 10172473
21:00+21с334759 0.0 101741
17 мая, пн
пн1700:00+19сз115174 0.0 101711
03:00+18зюз33555 0.0 101824
06:00+17зюз47595 0.0 1018123
09:00+24з694036 0.0 1017549
12:00+29з683194 0.0 10161314
15:00+31з79217 0.0 10143785
18:00+31зсз68208 0.0 10133552
21:00+22в113922 0.1 101211